Dr. Bill's Marine Weather

Coastal Marine Forecast

       Alabama   Florida   Louisiana   Mississippi

Printer Friendly AL  FL  LA  MS

Data Buoys:   Western Gulf of Mexico    Eastern Gulf of Mexico
**********************************************************************
  Alabama
1200 AM CDT THU OCT 23 2014

ALZ051>064-230600-
SOUTHWEST ALABAMA
  
CITY           SKY/WX    TMP DP  RH WIND       PRES   REMARKS
MOBILE         CLEAR     53  46  77 N5        30.10S                  
BROOKLEY FIELD CLEAR     61  49  64 N7        30.10F                  
EVERGREEN      CLEAR     47  44  90 CALM      30.10F                  
**********************************************************************
  Florida
100 AM EDT THU OCT 23 2014

FLZ001>010-012>015-112-114-115-230600-
PANHANDLE FLORIDA
  
CITY           SKY/WX    TMP DP  RH WIND       PRES   REMARKS
PENSACOLA      CLEAR     61  45  55 NE7       30.07F                  
PENSACOLA NAS  CLEAR     57  47  69 N7        30.06F                  
MILTON NAS     CLEAR     51  43  74 N3        30.08F                  
CRESTVIEW      CLEAR     49  45  86 NE3       30.08F                  
DUKE FIELD     CLEAR     47  44  89 CALM      30.07F                  
VALPARAISO     CLEAR     54  46  74 N6        30.07F                  
MARY ESTHER    CLEAR     52  43  70 N7        30.06F                  
PANAMA CITY    FAIR      52  45  77 N5        30.05F                  
TYNDALL AFB    CLEAR     61  48  62 NE5       30.06F                  
APALACHICOLA   CLEAR     60  49  66 NE6       30.04F                  

STATION/POSITION SKY/WX   TEMP    WIND        PRES    WAVE   SWELL
                          AIR SEA DIR/SP/G            HT/PER HT/PER
                          (F)     (DEG/KT/KT) (MB)    (FT/S) (FT/S)
30.1N   87.6W              70 78   30/ 17/ 19 1017.3F   3/ 4
29.2N   88.2W              74 79   40/ 19/ 23 1017.2F   3/ 5
28.8N   86.0W              75 80   40/ 17/ 19 1015.7F   3/ 5
PANAMA CITY BEAC           60 77   20/  5/  6 1017.7F
CAPE SAN BLAS    NOT AVBL
TOWER C                    71      40/ 19/ 22 1016.3F
28.5N   84.5W              76 81   50/ 16/ 17 1015.1F   3/ 5

**********************************************************************
  Louisiana
1200 AM CDT THU OCT 23 2014

LAZ040-048-061>063-065-066-069-230600-
SOUTHEAST LOUISIANA
  
CITY           SKY/WX    TMP DP  RH WIND       PRES   REMARKS
N.O. AUDUBON     N/A     67  52  59 MISG        N/A                   
N.O. INTL ARPT CLEAR     69  52  54 NE12      30.07F                  
N.O. LAKEFRONT LGT RAIN  70  52  52 NE23      30.08S                  
N.O. DOWNTOWN* FAIR      68  48  49 NE8       30.08F                  
SLIDELL        CLEAR     54  50  86 N6        30.09S                  
BATON ROUGE    CLEAR     58  51  78 NE6       30.09F                  
BOOTHVILLE     CLEAR     72  58  61 NE10G20   30.05F                  
BELLE CHASSE   CLEAR     64  53  67 NE7       30.06F                  
BOGALUSA*        N/A     51  48  88 CALM      30.12S                  
NEW ROADS*     FAIR      58  51  79 N6        30.10S                  
GONZALES*      FAIR      60  54  78 N3        30.08S                  
HAMMOND*       CLEAR     61  50  67 NE6       30.11S                  
HOUMA*         CLEAR     57  55  94 NE3       30.07S                  
PORT FOURCHON* CLEAR     70  63  78 N6        30.08F                  

**********************************************************************
  Mississippi
1200 AM CDT THU OCT 23 2014

MSZ080>082-230600-
COASTAL MISSISSIPPI
  
CITY           SKY/WX    TMP DP  RH WIND       PRES   REMARKS
BILOXI         CLEAR     59  48  67 NE6       30.09S                  
PASCAGOULA     CLEAR     49  46  90 N3        30.09F                  
GULFPORT       CLEAR     60  48  64 N5        30.08S                  
About Us | Coastal Marine Forecast | Offshore Marine Forecast | Marine Weather Discussion
Gulf Coast Tides | Exxon Mobil Platform 112B | Hourly Weather Observations | Weather Radar
Severe Weather Potential | Sea Surface Temperatures | Solar/Lunar Data | Hurricane Advisories | Home
     
USA Logo Dr. Bill's Marine Weather
Last date changed: February 4, 2005 12:04 PM
www.gulfmarineweather.com/hourlyweatherobservations.shtml
Contact Us